Time,TemperatureF,DewpointF,PressureIn,WindDirection,WindDirectionDegrees,WindSpeedMPH,WindSpeedGustMPH,Humidity,HourlyPrecipIn,Conditions,Clouds,dailyrainin,SoftwareType,DateUTC
2013-02-13 00:08:00,50.4,44.0,30.35,West,275,7.0,16.0,78,0.00,,,0.00,weatherlink.com 1.10,2013-02-13 08:08:00,
2013-02-13 00:23:00,50.3,43.0,30.35,SW,217,0.0,17.0,77,0.00,,,0.00,weatherlink.com 1.10,2013-02-13 08:23:00,
2013-02-13 00:38:00,50.2,43.0,30.35,NNW,331,4.0,13.0,77,0.00,,,0.00,weatherlink.com 1.10,2013-02-13 08:38:00,
2013-02-13 00:53:00,49.9,43.0,30.35,NW,317,5.0,18.0,77,0.00,,,0.00,weatherlink.com 1.10,2013-02-13 08:53:00,
2013-02-13 01:08:00,49.9,43.0,30.35,WSW,248,7.0,23.0,77,0.00,,,0.00,weatherlink.com 1.10,2013-02-13 09:08:00,
2013-02-13 01:23:00,49.6,43.0,30.35,NW,313,1.0,20.0,77,0.00,,,0.00,weatherlink.com 1.10,2013-02-13 09:23:00,
2013-02-13 01:38:00,49.5,43.0,30.35,NNW,348,11.0,18.0,78,0.00,,,0.00,weatherlink.com 1.10,2013-02-13 09:38:00,
2013-02-13 01:53:00,49.4,43.0,30.36,SW,227,1.0,19.0,79,0.00,,,0.00,weatherlink.com 1.10,2013-02-13 09:53:00,
2013-02-13 02:08:00,49.4,43.0,30.35,WSW,245,9.0,18.0,79,0.00,,,0.00,weatherlink.com 1.10,2013-02-13 10:08:00,
2013-02-13 02:24:00,49.5,43.0,30.35,NW,308,3.0,21.0,79,0.00,,,0.00,weatherlink.com 1.10,2013-02-13 10:24:00,
2013-02-13 02:38:00,49.6,43.0,30.35,South,188,3.0,21.0,79,0.00,,,0.00,weatherlink.com 1.10,2013-02-13 10:38:00,
2013-02-13 02:54:00,49.6,43.0,30.34,WSW,238,11.0,26.0,79,0.00,,,0.00,weatherlink.com 1.10,2013-02-13 10:54:00,
2013-02-13 03:08:00,49.8,43.0,30.34,WNW,294,7.0,18.0,77,0.00,,,0.00,weatherlink.com 1.10,2013-02-13 11:08:00,
2013-02-13 03:23:00,49.7,43.0,30.35,West,265,5.0,23.0,77,0.00,,,0.00,weatherlink.com 1.10,2013-02-13 11:23:00,
2013-02-13 03:39:00,49.7,43.0,30.34,WNW,290,10.0,25.0,77,0.00,,,0.00,weatherlink.com 1.10,2013-02-13 11:39:00,
2013-02-13 03:54:00,49.7,43.0,30.34,SSW,196,9.0,20.0,77,0.00,,,0.00,weatherlink.com 1.10,2013-02-13 11:54:00,
2013-02-13 04:08:00,49.3,43.0,30.34,WNW,300,4.0,25.0,78,0.00,,,0.00,weatherlink.com 1.10,2013-02-13 12:08:00,
2013-02-13 04:24:00,49.4,43.0,30.34,WSW,257,7.0,16.0,78,0.00,,,0.00,weatherlink.com 1.10,2013-02-13 12:24:00,
2013-02-13 04:38:00,49.3,43.0,30.34,SW,226,10.0,18.0,78,0.00,,,0.00,weatherlink.com 1.10,2013-02-13 12:38:00,
2013-02-13 04:53:00,49.3,43.0,30.34,West,279,7.0,25.0,79,0.00,,,0.00,weatherlink.com 1.10,2013-02-13 12:53:00,
2013-02-13 05:09:00,49.2,43.0,30.34,WSW,248,7.0,18.0,79,0.00,,,0.00,weatherlink.com 1.10,2013-02-13 13:09:00,
2013-02-13 05:23:00,49.0,43.0,30.34,West,272,6.0,15.0,79,0.00,,,0.00,weatherlink.com 1.10,2013-02-13 13:23:00,
2013-02-13 05:39:00,49.2,43.0,30.35,SW,224,8.0,16.0,79,0.00,,,0.00,weatherlink.com 1.10,2013-02-13 13:39:00,
2013-02-13 05:54:00,49.0,43.0,30.36,West,281,5.0,19.0,81,0.00,,,0.00,weatherlink.com 1.10,2013-02-13 13:54:00,
2013-02-13 06:09:00,48.9,43.0,30.36,South,182,4.0,22.0,81,0.00,,,0.00,weatherlink.com 1.10,2013-02-13 14:09:00,
2013-02-13 06:24:00,48.8,43.0,30.36,SSW,200,7.0,18.0,80,0.00,,,0.00,weatherlink.com 1.10,2013-02-13 14:24:00,
2013-02-13 06:39:00,49.3,43.0,30.36,NW,313,5.0,17.0,79,0.00,,,0.00,weatherlink.com 1.10,2013-02-13 14:39:00,
2013-02-13 06:54:00,49.0,43.0,30.36,West,263,5.0,18.0,79,0.00,,,0.00,weatherlink.com 1.10,2013-02-13 14:54:00,
2013-02-13 07:09:00,48.6,43.0,30.36,SSW,202,7.0,14.0,82,0.00,,,0.00,weatherlink.com 1.10,2013-02-13 15:09:00,
2013-02-13 07:24:00,48.5,43.0,30.36,WSW,254,8.0,25.0,81,0.00,,,0.00,weatherlink.com 1.10,2013-02-13 15:24:00,
2013-02-13 07:39:00,48.7,43.0,30.37,WSW,257,3.0,20.0,81,0.00,,,0.00,weatherlink.com 1.10,2013-02-13 15:39:00,
2013-02-13 07:54:00,48.8,43.0,30.38,West,261,6.0,20.0,81,0.00,,,0.00,weatherlink.com 1.10,2013-02-13 15:54:00,
2013-02-13 08:09:00,48.6,43.0,30.38,WSW,257,0.0,8.0,82,0.00,,,0.00,weatherlink.com 1.10,2013-02-13 16:09:00,
2013-02-13 08:24:00,47.8,43.0,30.38,WSW,244,2.0,7.0,84,0.00,,,0.00,weatherlink.com 1.10,2013-02-13 16:24:00,
2013-02-13 08:39:00,47.8,43.0,30.39,WNW,287,2.0,8.0,84,0.00,,,0.00,weatherlink.com 1.10,2013-02-13 16:39:00,
2013-02-13 08:54:00,47.9,43.0,30.39,WSW,256,6.0,12.0,84,0.00,,,0.00,weatherlink.com 1.10,2013-02-13 16:54:00,
2013-02-13 09:09:00,48.0,43.0,30.39,SW,216,5.0,9.0,84,0.00,,,0.00,weatherlink.com 1.10,2013-02-13 17:09:00,
2013-02-13 09:24:00,48.7,44.0,30.40,WSW,238,1.0,9.0,83,0.00,,,0.00,weatherlink.com 1.10,2013-02-13 17:24:00,
2013-02-13 09:39:00,49.0,44.0,30.40,West,259,8.0,12.0,82,0.00,,,0.00,weatherlink.com 1.10,2013-02-13 17:39:00,
2013-02-13 09:54:00,49.7,44.0,30.40,WNW,300,1.0,11.0,81,0.00,,,0.00,weatherlink.com 1.10,2013-02-13 17:54:00,
2013-02-13 10:09:00,50.8,45.0,30.40,WNW,284,3.0,9.0,79,0.00,,,0.00,weatherlink.com 1.10,2013-02-13 18:09:00,
2013-02-13 10:24:00,51.3,44.0,30.40,SSW,197,3.0,8.0,77,0.00,,,0.00,weatherlink.com 1.10,2013-02-13 18:24:00,
2013-02-13 10:39:00,52.6,45.0,30.41,West,278,4.0,15.0,75,0.00,,,0.00,weatherlink.com 1.10,2013-02-13 18:39:00,
2013-02-13 10:55:00,55.0,46.0,30.41,WNW,289,2.0,10.0,72,0.00,,,0.00,weatherlink.com 1.10,2013-02-13 18:55:00,
2013-02-13 11:09:00,55.4,45.0,30.41,WNW,290,5.0,12.0,68,0.00,,,0.00,weatherlink.com 1.10,2013-02-13 19:09:00,
2013-02-13 11:24:00,55.7,44.0,30.41,South,186,1.0,10.0,66,0.00,,,0.00,weatherlink.com 1.10,2013-02-13 19:24:00,
2013-02-13 11:40:00,54.9,44.0,30.41,WNW,291,2.0,14.0,67,0.00,,,0.00,weatherlink.com 1.10,2013-02-13 19:40:00,
2013-02-13 11:54:00,54.4,43.0,30.41,South,184,3.0,13.0,65,0.00,,,0.00,weatherlink.com 1.10,2013-02-13 19:54:00,
2013-02-13 12:09:00,56.4,45.0,30.40,SW,225,2.0,16.0,67,0.00,,,0.00,weatherlink.com 1.10,2013-02-13 20:09:00,
2013-02-13 12:25:00,58.3,44.0,30.40,SW,231,4.0,12.0,60,0.00,,,0.00,weatherlink.com 1.10,2013-02-13 20:25:00,
2013-02-13 12:39:00,57.9,44.0,30.39,WSW,240,3.0,15.0,60,0.00,,,0.00,weatherlink.com 1.10,2013-02-13 20:39:00,
2013-02-13 12:55:00,58.7,43.0,30.39,SSW,202,7.0,16.0,57,0.00,,,0.00,weatherlink.com 1.10,2013-02-13 20:55:00,
2013-02-13 13:09:00,58.2,42.0,30.39,WNW,290,4.0,20.0,56,0.00,,,0.00,weatherlink.com 1.10,2013-02-13 21:09:00,
2013-02-13 13:24:00,58.7,41.0,30.39,South,188,2.0,15.0,53,0.00,,,0.00,weatherlink.com 1.10,2013-02-13 21:24:00,
2013-02-13 13:39:00,59.1,42.0,30.39,WSW,242,3.0,19.0,53,0.00,,,0.00,weatherlink.com 1.10,2013-02-13 21:39:00,
2013-02-13 13:55:00,58.5,41.0,30.38,South,190,6.0,16.0,53,0.00,,,0.00,weatherlink.com 1.10,2013-02-13 21:55:00,
2013-02-13 14:10:00,58.5,42.0,30.39,WSW,244,5.0,13.0,55,0.00,,,0.00,weatherlink.com 1.10,2013-02-13 22:10:00,
2013-02-13 14:25:00,58.7,41.0,30.39,South,185,6.0,16.0,53,0.00,,,0.00,weatherlink.com 1.10,2013-02-13 22:25:00,
2013-02-13 14:40:00,55.0,41.0,30.39,West,260,2.0,14.0,60,0.00,,,0.00,weatherlink.com 1.10,2013-02-13 22:40:00,
2013-02-13 14:55:00,55.1,44.0,30.40,South,176,3.0,11.0,66,0.00,,,0.00,weatherlink.com 1.10,2013-02-13 22:55:00,
2013-02-13 15:10:00,56.0,43.0,30.39,South,180,8.0,10.0,62,0.00,,,0.00,weatherlink.com 1.10,2013-02-13 23:10:00,
2013-02-13 15:25:00,56.0,43.0,30.40,SSW,202,3.0,11.0,61,0.00,,,0.00,weatherlink.com 1.10,2013-02-13 23:25:00,
2013-02-13 15:40:00,55.0,42.0,30.40,SSW,207,5.0,7.0,61,0.00,,,0.00,weatherlink.com 1.10,2013-02-13 23:40:00,
2013-02-13 15:55:00,54.5,42.0,30.41,West,259,3.0,6.0,62,0.00,,,0.00,weatherlink.com 1.10,2013-02-13 23:55:00,
2013-02-13 16:10:00,51.8,41.0,30.41,West,259,2.0,8.0,66,0.00,,,0.00,weatherlink.com 1.10,2013-02-14 00:10:00,
2013-02-13 16:25:00,51.2,41.0,30.41,WSW,254,7.0,11.0,68,0.00,,,0.00,weatherlink.com 1.10,2013-02-14 00:25:00,
2013-02-13 16:40:00,50.5,41.0,30.40,SW,215,7.0,11.0,69,0.00,,,0.00,weatherlink.com 1.10,2013-02-14 00:40:00,
2013-02-13 16:55:00,50.1,41.0,30.41,WNW,287,2.0,9.0,70,0.00,,,0.00,weatherlink.com 1.10,2013-02-14 00:55:00,
2013-02-13 17:10:00,49.7,40.0,30.40,West,263,1.0,7.0,70,0.00,,,0.00,weatherlink.com 1.10,2013-02-14 01:10:00,
2013-02-13 17:25:00,49.1,40.0,30.40,WSW,253,0.0,7.0,71,0.00,,,0.00,weatherlink.com 1.10,2013-02-14 01:25:00,
2013-02-13 17:40:00,48.6,40.0,30.40,West,260,1.0,6.0,72,0.00,,,0.00,weatherlink.com 1.10,2013-02-14 01:40:00,
2013-02-13 17:55:00,48.2,39.0,30.40,NNW,333,7.0,9.0,71,0.00,,,0.00,weatherlink.com 1.10,2013-02-14 01:55:00,
2013-02-13 18:10:00,48.0,38.0,30.41,NNW,328,2.0,3.0,69,0.00,,,0.00,weatherlink.com 1.10,2013-02-14 02:10:00,
2013-02-13 18:25:00,48.1,38.0,30.41,SW,227,3.0,7.0,69,0.00,,,0.00,weatherlink.com 1.10,2013-02-14 02:25:00,
2013-02-13 18:40:00,48.0,37.0,30.42,East,95,5.0,9.0,67,0.00,,,0.00,weatherlink.com 1.10,2013-02-14 02:40:00,
2013-02-13 18:55:00,48.4,37.0,30.42,WNW,300,0.0,11.0,65,0.00,,,0.00,weatherlink.com 1.10,2013-02-14 02:55:00,
2013-02-13 19:10:00,48.3,37.0,30.42,WSW,255,2.0,7.0,66,0.00,,,0.00,weatherlink.com 1.10,2013-02-14 03:10:00,
2013-02-13 19:25:00,47.5,37.0,30.42,SSE,150,12.0,14.0,66,0.00,,,0.00,weatherlink.com 1.10,2013-02-14 03:25:00,
2013-02-13 19:44:00,47.5,37.0,30.42,SE,146,5.0,15.0,68,0.00,,,0.00,weatherlink.com 1.10,2013-02-14 03:44:00,
2013-02-13 19:56:00,46.3,37.0,30.43,ESE,109,2.0,4.0,69,0.00,,,0.00,weatherlink.com 1.10,2013-02-14 03:56:00,
2013-02-13 20:10:00,45.4,36.0,30.43,NE,39,3.0,4.0,69,0.00,,,0.00,weatherlink.com 1.10,2013-02-14 04:10:00,
2013-02-13 20:40:00,46.7,37.0,30.44,NNE,32,2.0,6.0,69,0.00,,,0.00,weatherlink.com 1.10,2013-02-14 04:40:00,
2013-02-13 20:55:00,45.9,37.0,30.44,ESE,123,0.0,7.0,71,0.00,,,0.00,weatherlink.com 1.10,2013-02-14 04:55:00,
2013-02-13 21:10:00,46.8,37.0,30.45,West,279,4.0,8.0,69,0.00,,,0.00,weatherlink.com 1.10,2013-02-14 05:10:00,
2013-02-13 21:25:00,46.7,37.0,30.45,South,189,6.0,7.0,69,0.00,,,0.00,weatherlink.com 1.10,2013-02-14 05:25:00,
2013-02-13 21:40:00,45.8,39.0,30.45,South,185,8.0,11.0,76,0.00,,,0.00,weatherlink.com 1.10,2013-02-14 05:40:00,
2013-02-13 21:56:00,45.4,39.0,30.46,South,182,7.0,10.0,78,0.00,,,0.00,weatherlink.com 1.10,2013-02-14 05:56:00,
2013-02-13 22:10:00,45.6,39.0,30.46,SSW,200,6.0,10.0,77,0.00,,,0.00,weatherlink.com 1.10,2013-02-14 06:10:00,
2013-02-13 22:26:00,45.4,39.0,30.47,SW,224,4.0,9.0,78,0.00,,,0.00,weatherlink.com 1.10,2013-02-14 06:26:00,
2013-02-13 22:40:00,44.6,39.0,30.47,West,266,2.0,8.0,80,0.00,,,0.00,weatherlink.com 1.10,2013-02-14 06:40:00,
2013-02-13 22:55:00,44.6,39.0,30.47,West,274,4.0,10.0,80,0.00,,,0.00,weatherlink.com 1.10,2013-02-14 06:55:00,
2013-02-13 23:10:00,44.2,38.0,30.47,West,271,3.0,8.0,80,0.00,,,0.00,weatherlink.com 1.10,2013-02-14 07:10:00,
2013-02-13 23:25:00,44.2,38.0,30.47,WNW,283,4.0,10.0,80,0.00,,,0.00,weatherlink.com 1.10,2013-02-14 07:25:00,
2013-02-13 23:40:00,43.9,38.0,30.47,West,269,5.0,9.0,80,0.00,,,0.00,weatherlink.com 1.10,2013-02-14 07:40:00,
2013-02-13 23:55:00,42.9,37.0,30.47,WSW,251,4.0,9.0,80,0.00,,,0.00,weatherlink.com 1.10,2013-02-14 07:55:00,